Regional Weather Roundup
Issued by NWS

Home | Current Version | Previous Version | Text Only | Print | Product List | Glossary On
Versions: 1 2 3 4 5 6 7 8 9 10 11 12 13 14 15 16 17 18 19 20 21 22 23 24 25 26 27 28 29 30 31 32 33 34 35 36 37 38 39 40 41 42 43 44 45 46 47 48 49 50
125
ASUS44 KLIX 282105
RWRLA
LOUISIANA WEATHER ROUNDUP
NATIONAL WEATHER SERVICE NEW ORLEANS LA
300 PM CST SAT FEB 28 2015

NOTE: "FAIR" INDICATES FEW OR NO CLOUDS BELOW 12,000 FEET WITH NO
      SIGNIFICANT WEATHER AND/OR OBSTRUCTIONS TO VISIBILITY.
      SKY/WX - SKY CONDITION AND SIGNIFICANT WEATHER.
      TMP - AIR TEMPERATURE.    DP   - DEWPOINT TEMPERATURE.
      RH  - RELATIVE HUMIDITY.  PRES - PRESSURE.
      HX  - HEAT INDEX.         WCI  - WIND CHILL INDEX.

*  THESE STATIONS ARE NOT NWS OR FAA STATIONS AND ARE NOT UNDER
   NWS QUALITY CONTROL.

LAZ040-048-061>063-065-066-069-282200-
SOUTHEAST LOUISIANA

CITY           SKY/WX    TMP DP  RH WIND       PRES   REMARKS
N.O. AUDUBON     N/A     61  50  65 MISG        N/A
N.O. INTL ARPT MOSUNNY   62  45  53 E12       30.30F
N.O. LAKEFRONT SUNNY     61  45  55 E14       30.32S
SLIDELL        SUNNY     65  42  43 E9        30.30F
BATON ROUGE    PTSUNNY   65  42  43 E9        30.28F
BOOTHVILLE     CLOUDY    57  52  83 NE13      30.31S
BELLE CHASSE   MOSUNNY   62  46  55 NE13      30.30F
BOGALUSA*        N/A     70  30  22 S7        30.31F
GALLIANO*      CLEAR     62  49  62 NE7       30.30S
NEW ROADS*     CLOUDY    65  39  38 E8        30.28S
GONZALES*      FAIR      64  45  50 E6        30.29F
HAMMOND*       SUNNY     66  41  39 SE5       30.32S
HOUMA*         SUNNY     64  50  59 NE13      30.28F
PORT FOURCHON* PTCLDY    57  52  82 NE20      30.30F

$$

LAZ041-044-053-054-282200-
SOUTHWEST LOUISIANA

CITY           SKY/WX    TMP DP  RH WIND       PRES   REMARKS
LAKE CHARLES   CLOUDY    58  43  57 E10       30.26F
LAFAYETTE      CLOUDY    65  45  48 SE8       30.27F
PATTERSON      PTSUNNY   64  46  52 E13       30.28F
SALT POINT       N/A     66  50  56 VRB7      30.25F
NEW IBERIA     MOSUNNY   67  45  45 E14       30.27F
CHENAULT AIRPK NOT AVBL

$$

LAZ027-028-282200-
CENTRAL LOUISIANA

CITY           SKY/WX    TMP DP  RH WIND       PRES   REMARKS
FORT POLK      CLOUDY    57  39  50 VRB3      30.27F
ALEXANDRIA INT CLOUDY    57  37  47 VRB5      30.29F
ALEXANDRIA     CLOUDY    59  35  40 N5        30.30F

$$

LAZ001-002-282200-
NORTHWEST LOUISIANA

CITY           SKY/WX    TMP DP  RH WIND       PRES   REMARKS
SHREVEPORT     CLOUDY    46  29  51 E5        30.32F
BARKSDALE AFB  CLOUDY    47  30  51 VRB6      30.32F
DTN SHREVEPORT CLOUDY    45  27  49 E5        30.32F

$$

LAZ014-016-282200-
NORTHEAST LOUISIANA

CITY           SKY/WX    TMP DP  RH WIND       PRES   REMARKS
MONROE         CLOUDY    49  34  56 NE10      30.36F
TALLULAH       CLOUDY    60  32  34 NE6       30.33F

$$




USA.gov is the U.S. government's official web portal to all federal, state and local government web resources and services.